Regional Weather Roundup
Issued by NWS

Home | Current Version | Previous Version | Graphics & Text | Print | Product List | Glossary On
Versions: 1 2 3 4 5 6 7 8 9 10 11 12 13 14 15 16 17 18 19 20 21 22 23 24 25 26 27 28 29 30 31 32 33 34 35 36 37 38 39 40 41 42 43 44 45 46 47 48 49 50
248
ASUS43 KLOT 230109
RWRIL

ILLINOIS REGIONAL WEATHER ROUNDUP
NATIONAL WEATHER SERVICE CHICAGO/ROMEOVILLE IL
800 PM CDT SAT JUL 22 2017

NOTE: "FAIR" INDICATES FEW OR NO CLOUDS BELOW 12,000 FEET WITH NO
SIGNIFICANT WEATHER AND/OR OBSTRUCTIONS TO VISIBILITY.

* THESE STATIONS ARE NOT UNDER NWS QUALITY CONTROL. THEY ALSO MAY NOT
  REPORT WEATHER SUCH AS PRECIPITATION OR FOG.

ILZ001-002-007-009-015-016-024-230200-
NORTHWEST ILLINOIS

CITY           SKY/WX    TMP DP  RH WIND       PRES   REMARKS
MOLINE         CLOUDY    83  73  72 NW3       29.81R HX  89
STERLING*      CLEAR     81  74  79 N3        29.82R HX  86
SAVANNA*       PTCLDY    80  75  85 W3        29.82R HX  85
$$

ILZ003-004-008-010-011-017-018-230200-
NORTH CENTRAL ILLINOIS

CITY           SKY/WX    TMP DP  RH WIND       PRES   REMARKS
ROCKFORD       PTCLDY    83  72  69 W6        29.82S HX  88
FREEPORT*      CLOUDY    79  75  87 CALM      29.83S HX  83
ROCHELLE*      CLEAR     78  75  89 W3        29.82S HX  81
DE KALB*       CLOUDY    82  74  77 CALM      29.83R HX  87
PERU*          PTCLDY   N/A N/A N/A CALM      29.81R
$$

ILZ005-006-012>014-019>023-230200-
NORTHEAST ILLINOIS

CITY           SKY/WX    TMP DP  RH WIND       PRES   REMARKS
CHICAGO-OHARE  PTCLDY    81  69  67 E8        29.80R HX  84
CHICAGO-MIDWAY MOCLDY    81  69  67 E6        29.80R HX  84
AURORA         PTCLDY    80  75  84 W5        29.81S HX  85
LANSING*       MOCLDY    79  67  66 E5        29.81R HX  82
JOLIET*        PTCLDY    83  75  78 SW5       29.80S HX  90
WAUKEGAN       CLEAR     74  72  93 E3        29.81R
DUPAGE AIRPORT CLEAR     81  73  76 W5        29.80S HX  86
WHEELING       CLEAR     78  72  81 NE5       29.82R HX  80
MORRIS*        CLOUDY    80  75  87 NW3       29.79S HX  84
ROMEOVILLE*    CLEAR     80  72  77 W6        29.81R HX  84
NORTHERLY ISL    N/A     75  69  81 CALM        N/A
$$

LMZ740>746-230200-
SOUTHERN LAKE MICHIGAN

STATION/POSITION SKY/WX   TEMP    WIND        PRES    VSBY  WAVE
                          AIR SEA DIR/SP/G                  HT/PER
                          (F)     (DEG/KT/KT) (MB)    (MI)  (FT/S)
SOUTHERN BUOY              70 70   10/  2/  4 1009.1R         1
WILMETTE HARBOR            74 74  130/  2/  4   N/A           1
HARRISON CRIB              78     130/  5/  5   N/A
BURNHAM HARBOR             75                   N/A
CALUMET HARBOR             76      50/  4/  5 1008.9R
BURNS HARBOR               77      80/  7/  9 1009.8S
MICHIGAN CITY              75      40/  6/  7   N/A
MICHIGAN CITY 6N           76 75   60/  6/  8   N/A           0
ST. JOSEPH                 75 78   30/  2/  2 1009.2          0
$$

ILZ025>027-034>036-040-047-049-050-058-095>099-230200-
WEST-CENTRAL ILLINOIS

CITY           SKY/WX    TMP DP  RH WIND       PRES   REMARKS
QUINCY         CLEAR     89  78  70 N5        29.78R HX 103
GALESBURG*     MOCLDY    81  76  83 N6        29.82R HX  87
MACOMB*        CLOUDY    82  79  91 NE3       29.82R HX  91
JACKSONVILLE*  MOCLDY    86  78  77 NE5       29.79R HX  99
PITTSFIELD*    MOCLDY    89  79  71 N3        29.80R HX 105
$$

ILZ028>032-037-038-041>044-048-051>054-059>061-230200-
CENTRAL ILLINOIS

CITY           SKY/WX    TMP DP  RH WIND       PRES   REMARKS
PONTIAC        CLEAR     80  79  97 E5        29.80S HX  86
BLOOMINGTON    CLEAR     81  76  84 NE6       29.82S HX  87
DECATUR        CLOUDY    84  78  82 NE5       29.79F HX  95
PEORIA         CLEAR     83  79  88 N3        29.79R HX  94
LACON*         CLEAR     81  76  86 CALM      29.80R HX  87
LINCOLN*       CLEAR     84  82  91 CALM      29.78S HX 100
SPRINGFIELD    PTCLDY    88  80  77 E7        29.78S HX 104
TAYLORVILLE    MOCLDY    86  76  71 NE6       29.78S HX  97
$$

ILZ033-039-045-046-055>057-062-063-230200-
EAST-CENTRAL ILLINOIS

CITY           SKY/WX    TMP DP  RH WIND       PRES   REMARKS
CHAMPAIGN      CLOUDY    84  78  82 NW3       29.80S HX  95
RANTOUL*       CLEAR     84  78  80 N5        29.80S HX  95
MATTOON        MOCLDY    87  78  74 N3        29.79S HX 100
PARIS*         PTCLDY    81  78  91 E3        29.81S HX  88
$$

ILZ079-100>102-230200-
SOUTHWEST ILLINOIS

CITY           SKY/WX    TMP DP  RH WIND       PRES   REMARKS
ALTON          PTCLDY    91  79  66 NW5       29.76S HX 107
CAHOKIA*       PTCLDY    98  72  42 S5        29.75R HX 107
SPARTA*        CLEAR     92  73  54 S9        29.79S HX 100
$$

ILZ064>066-069>071-074>076-080>082-084>086-088>090-092>094-230200-
SOUTH-CENTRAL ILLINOIS

CITY           SKY/WX    TMP DP  RH WIND       PRES   REMARKS
CARBONDALE     CLEAR     87  76  69 SW10      29.81R HX  97
CAIRO*         CLEAR     89  76  66 SW7       29.83R HX 100
EFFINGHAM*     MOCLDY    90  74  59 S3        29.79S HX 100
MARION         CLEAR     90  73  58 SW9       29.82S HX  98
MT. VERNON     CLEAR     89  73  59 SW10      29.79S HX  97
CENTRALIA*     CLEAR     90  77  65 S8        29.77S HX 103
SALEM*         CLEAR     91  74  57 S5        29.78S HX 100
METROPOLIS*    CLEAR     89  75  63 SW9       29.83S HX  99
$$

ILZ067-068-072-073-078-083-087-091-230200-
SOUTHEAST ILLINOIS

CITY           SKY/WX    TMP DP  RH WIND       PRES   REMARKS
LAWRENCEVILLE  PTCLDY    89  75  63 S7        29.80R HX  99
FLORA*         CLEAR     89  74  60 S5        29.79S HX  97
FAIRFIELD*     CLEAR     88  73  60 S5        29.78F HX  95
HARRISBURG*    CLEAR     89  75  65 SW6       29.82R HX  99
ROBINSON*      PTCLDY    86  76  70 S8        29.78S THUNDER HX  96
CARMI*         CLEAR     86  76  72 SW7       29.80S HX  96
$$

ABBREVIATIONS USED IN REMARKS
   TC - TEMPERATURE IN CELSIUS
  WCI - WIND CHILL INDEX
   HX - HEAT INDEX
  VSB - VISIBILITY
$$





USA.gov is the U.S. government's official web portal to all federal, state and local government web resources and services.